User: anonymous   Login
Location: Newark
(41.0400°S, 62.7845°W)
Time: 02:33:21
(UTC+00:00)
Language:

deb Explorer IX - Orbit

View from above orbital plane
View from above orbital plane
View from above satellite
View from above satellite

Ground track
Ground track

The orbit data is extracted from the following two-line orbital elements,

1 00085U 61004C   21333.00718669  .00003026  00000-0  66436-3 0  9992
2 00085  38.7622 195.7404 0375459  73.7858 290.3856 14.22784956  6483
Epoch (UTC): 29 November 2021 00:10:20
Eccentricity: 0.0375459
inclination: 38.7622°
perigee height: 546 km
apogee height: 1086 km
right ascension of ascending node: 195.7404°
argument of perigee: 73.7858°
revolutions per day: 14.22784956
mean anomaly at epoch: 290.3856°
orbit number at epoch: 648

The dashed part of the orbit path shows where the satellite is in the earth's shadow,  

DLR